Hutchinson, KS

10:11 AM CDT on September 15, 2019 (GMT -0500)
Hutchinson Municipal

Weather History for KHUT - August, 2019

Change the Weather History Date:

Tuesday, August 20, 2019

  Actual Average Record
Temperature  
Mean Temperature 90 °F -  
Max Temperature 102 °F 89 °F 105 °F (2001)
Min Temperature 77 °F 63 °F 48 °F (2012)
Cooling Degree Days 24    
Growing Degree Days 40 (Base 50)    
Moisture  
Dew Point 71 °F    
Average Humidity 58    
Maximum Humidity 76    
Minimum Humidity 33    
Precipitation  
Precipitation 0.00 in - - ()
Sea Level Pressure  
Sea Level Pressure 29.87 in    
Wind  
Wind Speed 9 mph (South)    
Max Wind Speed 15 mph    
Max Gust Speed 23 mph    
Visibility 10 miles    
Events      
Averages and records for this station are not official NWS values.
T = Trace of Precipitation, MM = Missing Value Source: NWS Daily Summary

Daily Weather History Graph

Daily Weather History Graph

Search for Another Location

Airport or City:

Astronomy

Aug. 20, 2019 Rise Set
Actual Time 6:50 AM CDT 8:18 PM CDT
Civil Twilight 6:22 AM CDT 8:46 PM CDT
Nautical Twilight 5:49 AM CDT 9:19 PM CDT
Astronomical Twilight 5:14 AM CDT 9:54 PM CDT
Moon 11:12 PM CDT (8/20) 11:25 AM CDT (8/20)
Length of Visible Light 14h 23m
Length of Day
13h 27m
Waning Gibbous, 77% of the Moon is Illuminated
Aug 20
Waning Gibbous
Aug 23
Last Quarter
Aug 30
New
Sep 5
First Quarter
Sep 13
Full

Hourly Weather History & Observations

Time (CDT) Temp. Heat Index Dew Point Humidity Pressure Visibility Wind Dir Wind Speed Gust Speed Precip Events Conditions
12:52 AM 82.9 °F 88.0 °F 72.0 °F 69% 29.86 in 10.0 mi SSE 10.4 mph - N/A   Clear
1:52 AM 82.9 °F 88.0 °F 72.0 °F 69% 29.88 in 10.0 mi SSE 8.1 mph - N/A   Clear
2:52 AM 81.0 °F 85.2 °F 72.0 °F 74% 29.89 in 10.0 mi SSE 8.1 mph - N/A   Clear
3:52 AM 81.0 °F 84.9 °F 71.1 °F 72% 29.89 in 10.0 mi SSE 8.1 mph - N/A   Clear
4:52 AM 80.1 °F 83.2 °F 70.0 °F 71% 29.89 in 10.0 mi South 5.8 mph - N/A   Clear
5:52 AM 78.1 °F - 70.0 °F 76% 29.89 in 10.0 mi South 5.8 mph - N/A   Clear
6:52 AM 77.0 °F - 69.1 °F 76% 29.89 in 10.0 mi South 5.8 mph - N/A   Clear
7:52 AM 78.1 °F - 70.0 °F 76% 29.91 in 10.0 mi South 5.8 mph - N/A   Clear
8:52 AM 82.9 °F 87.0 °F 70.0 °F 65% 29.92 in 10.0 mi South 9.2 mph - N/A   Clear
9:52 AM 88.0 °F 92.1 °F 69.1 °F 53% 29.91 in 10.0 mi SSW 11.5 mph 19.6 mph N/A   Clear
10:52 AM 91.0 °F 97.6 °F 71.1 °F 52% 29.90 in 10.0 mi SSW 12.7 mph - N/A   Clear
11:52 AM 95.0 °F 102.5 °F 71.1 °F 46% 29.88 in 10.0 mi South 13.8 mph - N/A   Clear
12:52 PM 96.1 °F 103.5 °F 71.1 °F 44% 29.87 in 10.0 mi SSW 12.7 mph 23.0 mph N/A   Clear
2:52 PM 100.9 °F 109.7 °F 71.1 °F 38% 29.86 in 10.0 mi SSW 13.8 mph 20.7 mph N/A   Clear
3:52 PM 102.0 °F 108.8 °F 69.1 °F 34% 29.83 in 10.0 mi South 13.8 mph - N/A   Clear
4:52 PM 102.0 °F 108.1 °F 68.0 °F 33% 29.82 in 10.0 mi South 15.0 mph - N/A   Clear
5:52 PM 100.0 °F 107.0 °F 69.1 °F 37% 29.82 in 10.0 mi SSE 11.5 mph - N/A   Clear
6:52 PM 93.9 °F 99.1 °F 69.1 °F 44% 29.82 in 10.0 mi SE 8.1 mph - N/A   Clear
7:52 PM 91.0 °F 97.6 °F 71.1 °F 52% 29.84 in 10.0 mi SE 6.9 mph - N/A   Clear
8:52 PM 88.0 °F 94.7 °F 72.0 °F 59% 29.85 in 10.0 mi SSE 13.8 mph - N/A   Clear
9:52 PM 88.0 °F 93.8 °F 71.1 °F 57% 29.88 in 10.0 mi SSE 6.9 mph - N/A   Clear
10:52 PM 86.0 °F 92.2 °F 72.0 °F 63% 29.87 in 10.0 mi SSE 8.1 mph - N/A   Clear
11:52 PM 84.9 °F 90.7 °F 72.0 °F 65% 29.90 in 10.0 mi South 9.2 mph - N/A   Clear